Flag for Greenland Weather past 2 weeks in Thule Air Base, Greenland

Now
-17 °F

Sunny.


Feels Like: -37 °F
Forecast: -14 / -7 °F
Wind: 10 mph from East

Location: Thule A. B.

Current Time: Dec 22, 2014 at 11:08:36 AM

Latest Report: Dec 22, 2014 at 9:58 AM


Visibility: N/A

Pressure: 30.04 "Hg

Humidity: 76%

Dew point: -22 °F

Location of Thule Air BaseLocation

Historic Weather in Thule Air Base — Graph

°F

Thule Air Base temperature yesterday

Maximum temperature yesterday: -2 °F (at 5:58 AM)
Minimum temperature yesterday: -17 °F (at 8:58 PM)
Average temperature yesterday: -10 °F

Past Weeks' High & Low Weather Summary

 TemperatureHumidityPressure
High14 °F (Dec 11, 6:58 PM)85% (Dec 11, 1:58 AM)30.07 "Hg (Dec 11, 1:58 AM)
Low-22 °F (Dec 18, 7:58 AM)39% (Dec 12, 3:58 AM)29.17 "Hg (Dec 12, 9:58 AM)
Average-7 °F68%29.65 "Hg
* Reported Dec 7 9:58 AM — Dec 22 9:58 AM, Thule Air Base, Weather by CustomWeather, © 2014

Note: Actual official high and low records may vary slightly from our data, if they occured in-between our weather recording intervals... More about our weather records

Advertising

Thule Air Base weather history for previous 24 hours

 ConditionsComfort  
Time TempWeatherWind HumidityBarometerVisibility
9:58 AM
Dec 22
-17 °FSunny.10 mph76%30.04 "HgN/A
8:58 AM-18 °FSunny.14 mph75%30.02 "HgN/A
7:58 AM-17 °FSunny.12 mph76%30.02 "HgN/A
6:58 AM-15 °FClear.12 mph76%30.01 "HgN/A
5:58 AM-17 °FClear.10 mph76%30.01 "HgN/A
4:58 AM-13 °FClear.9 mph69%29.99 "HgN/A
3:58 AM-13 °FClear.9 mph69%29.98 "HgN/A
2:58 AM-17 °FClear.10 mph69%29.96 "HgN/A
1:58 AM-18 °FSunny.12 mph75%29.95 "HgN/A
12:58 AM-15 °FClear.8 mph69%29.94 "HgN/A
11:58 PM
Dec 21
-13 °FClear.8 mph69%29.93 "HgN/A
10:58 PM-15 °FClear.9 mph69%29.92 "HgN/A
9:58 PM-13 °FClear.10 mph69%29.91 "HgN/A
8:58 PM-17 °FClear.10 mph69%29.90 "HgN/A
7:58 PM-15 °FOvercast.14 mph69%29.89 "HgN/A
6:58 PM-9 °FSunny.14 mph70%29.88 "HgN/A
5:58 PM-13 °FSunny.13 mph76%29.87 "HgN/A
4:58 PM-11 °FSunny.12 mph76%29.86 "HgN/A
3:58 PM-11 °FSunny.9 mph76%29.85 "HgN/A
2:58 PM-13 °FSunny.13 mph76%29.83 "HgN/A
1:58 PM-11 °FSunny.12 mph70%29.82 "HgN/A
12:58 PM-13 °FSunny.12 mph76%29.81 "HgN/A
11:58 AM-13 °FPassing clouds.10 mph76%29.80 "HgN/A
11:01 AM-9 °FScattered clouds.13 mph77%29.81 "HgN/A
Weather by CustomWeather, © 2014

See weather overviewHow to use our weather pages